{"data":{"norad_id":55653,"epoch":"2026-05-24T23:36:44.915616Z","epoch_age_seconds":66519,"freshness":"FRESH","line1":"1 55653U 23021AB  26144.98385319 -.00002379  00000+0 -19163-3 0  9990","line2":"2 55653  69.9996 351.9252 0002690 264.7525  95.3328 14.98330510180226","mean_motion":14.9833051,"eccentricity":0.000269,"inclination_deg":69.9996,"raan_deg":351.9252,"arg_perigee_deg":264.7525,"mean_anomaly_deg":95.3328,"bstar":-0.00019163,"rev_number":18022,"period_min":96.106966412904,"perigee_km":570.18471234852,"apogee_km":573.92391527535,"semimajor_km":6950.1913138119,"source":"CELESTRAK","updated_at":"2026-05-25T13:38:17.871237Z"}}